Waarnemingen

Advertentie
Mijn weer
Plymouth, Groot Brittannië (3827): temperatuur & dauwpunt: 10.01.2021 02:00:00 - 16.01.2021 02:00:00 (GMT)Plymouth, Groot Brittannië (3827): windsnelheid & windstoten: 10.01.2021 02:00:00 - 16.01.2021 02:00:00 (GMT)Plymouth, Groot Brittannië (3827): windrichting: 10.01.2021 02:00:00 - 16.01.2021 02:00:00 (GMT)Plymouth, Groot Brittannië (3827): luchtdruk: 10.01.2021 02:00:00 - 16.01.2021 02:00:00 (GMT)Plymouth, Groot Brittannië (3827): zicht: 10.01.2021 02:00:00 - 16.01.2021 02:00:00 (GMT)Plymouth, Groot Brittannië (3827): neerslag: 10.01.2021 02:00:00 - 16.01.2021 02:00:00 (GMT)
Datum & Tijd tt [°C] td [°C] ff [km/u] ff [kn] fx [km/u] fx [kn] dd ppp [hPa] vv [km] rr [mm]
16.01.2021 02:00:00 8,6 8,0 37 20 50 27 Z 1023,5 4,1 1,2
16.01.2021 01:00:00 8,1 7,3 28 15 - - Z 1024,3 13 0,6
16.01.2021 00:00:00 7,9 6,7 29 16 - - ZZO 1025,6 7 0,2
15.01.2021 23:00:00 7,8 5,3 22 12 - - ZZO 1026,6 30 0,0
15.01.2021 22:00:00 7,6 4,8 24 13 - - ZZO 1027,3 35 0,0
15.01.2021 21:00:00 7,2 4,3 22 12 - - ZZO 1027,9 35 0,0
15.01.2021 20:00:00 6,6 3,7 18 10 - - ZZO 1028,5 35 0,0
15.01.2021 19:00:00 6,3 3,2 16 9 - - ZO 1028,8 30 0,0
15.01.2021 18:00:00 5,8 2,6 9 5 - - ZO 1029,3 28 0,0
15.01.2021 17:00:00 5,5 2,3 9 5 - - ZO 1029,4 23 0,0
15.01.2021 16:00:00 5,7 2,3 16 9 - - OZO 1029,3 30 0,0
15.01.2021 15:00:00 6,4 2,5 15 8 - - OZO 1029,8 30 0,0
15.01.2021 14:00:00 5,9 2,6 9 5 - - OZO 1030,1 23 0,0
15.01.2021 13:00:00 5,6 2,2 11 6 - - OZO 1030,8 21 0,0
15.01.2021 12:00:00 5,2 2,4 11 6 - - O 1031,4 18 0,0
15.01.2021 11:00:00 4,2 1,7 13 7 - - O 1031,3 14 0,0
15.01.2021 10:00:00 3,6 2,1 13 7 - - O 1031,1 12 0,0
15.01.2021 09:00:00 2,9 2,0 5 3 - - ONO 1030,3 8 0,0
15.01.2021 08:00:00 3,1 2,0 11 6 - - O 1029,6 8 0,0
15.01.2021 07:00:00 4,4 3,1 8 4 - - O 1029,3 29 0,0
15.01.2021 06:00:00 5,5 3,7 9 5 - - N 1028,7 30 0,0
15.01.2021 05:00:00 6,1 4,0 9 5 - - N 1028,3 30 0,0
15.01.2021 04:00:00 6,2 4,4 11 6 - - N 1028,0 29 0,0
15.01.2021 03:00:00 6,8 5,4 9 5 - - NNW 1027,8 16 0,0
15.01.2021 02:00:00 6,7 5,0 11 6 - - N 1026,9 24 0,0
15.01.2021 01:00:00 6,6 4,5 13 7 - - NW 1026,6 26 0,0
15.01.2021 00:00:00 6,6 4,4 11 6 - - NW 1026,4 25 0,0
14.01.2021 23:00:00 6,6 4,4 13 7 - - WNW 1025,9 23 0,0
14.01.2021 22:00:00 6,9 3,5 13 7 - - NW 1025,8 27 0,0
14.01.2021 21:00:00 7,1 3,0 15 8 - - NW 1025,5 30 0,0
14.01.2021 20:00:00 7,3 3,5 18 10 - - NNW 1024,3 30 0,0
14.01.2021 19:00:00 7,5 4,5 24 13 - - NW 1023,6 23 0,0
14.01.2021 18:00:00 7,8 4,3 28 15 48 26 NW 1023,2 26 0,0
14.01.2021 17:00:00 7,9 5,3 31 17 54 29 NNW 1022,5 28 0,0
14.01.2021 16:00:00 8,5 5,5 35 19 61 33 NNW 1021,8 30 0,0
14.01.2021 15:00:00 8,4 6,4 31 17 55 30 NW 1020,9 8 0,0
14.01.2021 14:00:00 9,0 6,7 28 15 52 28 NW 1020,4 30 0,0
14.01.2021 13:00:00 9,4 6,7 29 16 50 27 NW 1020,0 35 0,0
14.01.2021 12:00:00 9,4 6,8 24 13 50 27 NW 1020,0 30 0,0
14.01.2021 11:00:00 9,6 7,3 24 13 48 26 NW 1019,7 40 0,0
14.01.2021 10:00:00 9,5 7,8 26 14 48 26 NW 1019,0 40 0,0
14.01.2021 09:00:00 9,5 8,7 26 14 - - NW 1017,9 30 0,0
14.01.2021 08:00:00 9,6 9,5 22 12 - - WNW 1017,4 22 0,0
14.01.2021 07:00:00 9,7 9,7 24 13 - - W 1016,8 23 0,0
14.01.2021 06:00:00 9,7 9,7 24 13 - - W 1016,5 12 0,0
14.01.2021 05:00:00 10,1 10,1 24 13 46 25 WZW 1016,4 4,5 0,2
14.01.2021 04:00:00 10,0 10,0 34 18 46 25 ZW 1016,8 4,8 0,4
14.01.2021 03:00:00 10,0 10,0 35 19 48 26 ZW 1018,0 2,3 0,0
14.01.2021 02:00:00 9,8 9,8 28 15 - - WZW 1018,7 4,3 0,2
14.01.2021 01:00:00 9,8 9,8 29 16 48 26 WZW 1019,4 5 0,0
14.01.2021 00:00:00 9,8 9,7 35 19 50 27 WZW 1020,2 10 0,0
13.01.2021 23:00:00 9,7 9,6 31 17 - - WZW 1020,8 9 0,0
13.01.2021 22:00:00 9,6 9,4 26 14 - - WZW 1021,2 5 0,0
13.01.2021 21:00:00 9,7 9,0 26 14 - - WZW 1021,4 13 0,0
13.01.2021 20:00:00 9,7 8,8 28 15 - - WZW 1021,4 13 0,0
13.01.2021 19:00:00 9,6 8,8 28 15 - - WZW 1021,8 12 0,0
13.01.2021 18:00:00 9,4 8,9 22 12 - - W 1022,0 15 0,0
13.01.2021 17:00:00 9,4 8,7 22 12 - - W 1021,8 11 0,0
13.01.2021 16:00:00 9,8 8,5 29 16 - - WZW 1021,7 20 0,0
13.01.2021 15:00:00 10,0 8,4 29 16 48 26 W 1021,7 18 0,0
13.01.2021 14:00:00 9,9 8,6 28 15 - - W 1021,9 28 0,0
13.01.2021 13:00:00 9,9 9,0 24 13 46 25 WZW 1022,4 11 0,0
13.01.2021 12:00:00 10,2 8,9 29 16 46 25 W 1022,7 23 0,0
13.01.2021 11:00:00 9,8 8,7 24 13 - - W 1023,2 26 0,0
13.01.2021 10:00:00 9,5 8,4 22 12 - - W 1022,8 24 0,0
13.01.2021 09:00:00 9,2 8,2 28 15 - - W 1022,6 30 0,0
13.01.2021 08:00:00 9,2 8,4 28 15 - - W 1022,4 30 0,0
13.01.2021 07:00:00 9,3 8,4 28 15 - - W 1022,1 30 0,0
13.01.2021 06:00:00 9,0 8,8 26 14 - - W 1022,0 28 0,0
13.01.2021 05:00:00 8,9 8,8 24 13 - - W 1022,1 18 0,0
13.01.2021 04:00:00 8,9 8,9 22 12 - - W 1022,4 20 0,2
13.01.2021 03:00:00 9,1 9,0 18 10 - - W 1022,4 4,6 0,0
13.01.2021 02:00:00 9,1 9,0 16 9 - - W 1022,3 7 0,0
13.01.2021 01:00:00 9,3 9,1 18 10 - - W 1022,2 35 0,0
13.01.2021 00:00:00 9,4 9,2 15 8 - - W 1022,4 30 0,0
12.01.2021 23:00:00 9,6 9,3 16 9 - - W 1022,0 27 0,0
12.01.2021 22:00:00 9,6 9,3 16 9 - - W 1021,4 45 0,0
12.01.2021 21:00:00 9,6 9,4 18 10 - - W 1021,1 45 0,0
12.01.2021 20:00:00 9,7 9,5 15 8 - - WNW 1020,7 40 0,2
12.01.2021 19:00:00 9,6 9,5 21 11 - - WNW 1020,1 5 0,0
12.01.2021 18:00:00 9,8 9,7 18 10 - - W 1019,5 5 0,2
12.01.2021 17:00:00 9,9 9,8 21 11 - - W 1018,9 35 0,0
12.01.2021 16:00:00 10,1 9,8 22 12 - - W 1018,3 7 0,0
12.01.2021 15:00:00 10,3 9,9 22 12 - - WNW 1017,8 10 0,2
12.01.2021 14:00:00 10,5 10,0 24 13 - - WNW 1017,2 11 0,0
12.01.2021 13:00:00 10,4 10,1 26 14 - - W 1017,3 19 0,0
12.01.2021 12:00:00 10,4 9,9 26 14 - - W 1017,3 19 0,0
12.01.2021 11:00:00 10,3 9,8 28 15 - - W 1017,2 14 0,0
12.01.2021 10:00:00 10,0 9,6 28 15 - - W 1016,7 22 0,0
12.01.2021 09:00:00 9,8 9,6 26 14 - - W 1016,3 19 0,0
12.01.2021 08:00:00 9,8 9,4 28 15 50 27 W 1015,8 9 0,0
12.01.2021 07:00:00 9,8 9,4 29 16 54 29 W 1015,5 30 0,0
12.01.2021 06:00:00 9,7 9,5 37 20 52 28 W 1015,2 30 0,0
12.01.2021 05:00:00 9,2 9,2 31 17 50 27 W 1015,4 14 0,0
12.01.2021 04:00:00 9,0 8,8 34 18 48 26 WZW 1016,1 3,6 0,2
12.01.2021 03:00:00 8,6 8,3 34 18 54 29 W 1016,9 4,3 0,0
12.01.2021 02:00:00 8,5 7,8 37 20 59 32 WZW 1017,0 12 0,0
12.01.2021 01:00:00 8,3 7,5 37 20 57 31 W 1017,7 11 0,0
12.01.2021 00:00:00 8,4 7,9 41 22 54 29 W 1018,4 23 0,0
11.01.2021 23:00:00 8,5 8,1 31 17 50 27 WZW 1018,5 13 0,0
11.01.2021 22:00:00 8,4 8,1 31 17 48 26 WZW 1018,6 15 0,0
11.01.2021 21:00:00 8,3 8,0 31 17 48 26 WZW 1019,0 5 0,0
11.01.2021 20:00:00 8,0 7,7 34 18 48 26 WZW 1019,2 6 0,0
11.01.2021 19:00:00 8,1 7,6 31 17 - - WZW 1019,6 14 0,0
11.01.2021 18:00:00 7,6 6,7 22 12 - - W 1019,9 26 0,0
11.01.2021 17:00:00 7,4 6,6 26 14 - - W 1020,4 30 0,2
11.01.2021 16:00:00 8,0 6,6 24 13 - - W 1020,7 30 0,0
11.01.2021 15:00:00 8,3 5,9 24 13 - - W 1021,0 29 -
11.01.2021 14:00:00 8,0 6,3 24 13 - - W 1021,4 30 0,0
11.01.2021 13:00:00 7,9 7,3 28 15 - - W 1022,2 35 0,0
11.01.2021 12:00:00 8,1 7,6 18 10 - - WZW 1023,0 8 0,0
11.01.2021 11:00:00 7,6 6,4 24 13 - - W 1024,0 26 0,0
11.01.2021 10:00:00 7,1 6,1 22 12 - - W 1023,8 30 0,0
11.01.2021 09:00:00 7,2 5,6 18 10 - - W 1023,5 35 0,0
11.01.2021 08:00:00 6,7 6,2 21 11 - - W 1023,3 35 0,0
11.01.2021 07:00:00 6,7 6,5 18 10 - - W 1023,2 8 0,0
11.01.2021 06:00:00 6,3 6,0 13 7 - - W 1023,3 23 0,0
11.01.2021 05:00:00 6,7 6,3 21 11 - - W 1023,8 30 0,0
11.01.2021 04:00:00 6,6 6,2 21 11 - - WZW 1024,4 27 0,0
11.01.2021 03:00:00 6,6 5,9 21 11 - - WZW 1025,0 35 0,0
11.01.2021 02:00:00 6,3 5,6 15 8 - - W 1025,1 35 0,0
11.01.2021 01:00:00 6,2 5,0 16 9 - - W 1025,5 30 0,0
11.01.2021 00:00:00 5,8 4,0 13 7 - - W 1025,9 40 0,0
10.01.2021 23:00:00 6,1 4,2 15 8 - - W 1026,5 35 0,0
10.01.2021 22:00:00 6,2 3,8 11 6 - - W 1026,5 40 0,0
10.01.2021 21:00:00 5,7 3,6 13 7 - - W 1026,8 35 0,0
10.01.2021 20:00:00 4,8 3,1 2 1 - - WZW 1026,8 16 0,0
10.01.2021 19:00:00 5,0 3,4 5 3 - - WNW 1026,9 18 0,0
10.01.2021 18:00:00 4,5 2,9 4 2 - - W 1026,9 14 0,0
10.01.2021 17:00:00 4,5 2,8 5 3 - - NNW 1026,9 11 0,0
10.01.2021 16:00:00 4,7 3,0 4 2 - - WNW 1027,1 14 0,0
10.01.2021 15:00:00 4,7 2,8 4 2 - - NNW 1027,3 14 0,0
10.01.2021 14:00:00 4,6 3,1 5 3 - - W 1027,4 15 0,0
10.01.2021 13:00:00 3,1 2,8 8 4 - - W 1027,9 12 0,0
10.01.2021 12:00:00 2,0 2,0 4 2 - - WNW 1028,6 8 0,0
10.01.2021 11:00:00 0,0 0,0 2 1 - - W 1029,0 4,2 0,0
10.01.2021 10:00:00 -1,0 -1,0 4 2 - - N 1028,9 3,5 0,0
10.01.2021 09:00:00 -2,6 -2,6 4 2 - - O 1028,8 3,0 0,0
10.01.2021 08:00:00 -3,2 -3,2 2 1 - - NW 1028,4 3,5 0,0
10.01.2021 07:00:00 -3,1 -3,1 5 3 - - ONO 1028,2 0,5 0,0
10.01.2021 06:00:00 -2,7 -2,7 5 3 - - ONO 1028,2 0,2 0,0
10.01.2021 05:00:00 -2,0 -2,1 8 4 - - ONO 1028,2 0,6 0,0
10.01.2021 04:00:00 -0,8 -0,8 5 3 - - NO 1028,4 4,8 0,0
10.01.2021 03:00:00 -1,0 -1,0 11 6 - - N 1028,9 2,7 0,0
10.01.2021 02:00:00 -1,0 -1,0 8 4 - - N 1028,8 0,7 0,0

tt = temperatuur
td = dauwpunt
ff = windsnelheid
fx = windstoten
dd = windrichting
ppp = luchtdruk
vv = zicht
rr = neerslag

Weerstations in de omgeving